New Rooks County (RCP)
Stockton, KS
Field Elevation: 1999
Lat: 39°20.80N  Long: 99°18.28W
CTAF/Unicom Freq: 122.9000
   
    
Weather Advisories
10/22/2014 04:40 Z
Altimeter 29.97" Hg
Wind 170° @ 12 KT
Gusts --
Visibility 10 SM
Temperature 19° C (66° F)
Dewpoint 13° C (55° F)
Relative Humidity 66%
Density Altitude --
Condensation Altitude 5,300 feet
  Wind and Runways
Indicated Runway = 18
History
 
 
More Info
All DigiWx sites map
NOAA Forecast
 
Airport IQ 5010
(FLV) Sherman Airfield
(K68) Garnett Municipal Airport
 
about DigiWx
 
FAA Disclaimer: The data displayed is for advisory purposes only and is not to be used for flight planning or operations. For official data, please call (not available) to hear the current automated AWOS voice message.
  METAR RCP 220440Z AUTO 17012KT 10SM 19/13 A2997